STARLINK-1305, 45377

Orbit data source: Space-Track

STARLINK-1305, 45377 is a payload satellite owned by SpaceX/Seattle (US) in LEO that was launched on Wed, 18 Mar 2020 UTC via an FALCON 9 launch vehicle from the Air Force Eastern Test Range (AFETR). Payload-class satellites include a variety of spacecraft equipped with specific instruments for various scientific and technological missions. These include communications satellites like Starlink; space stations such as the ISS; scientific satellites like the Hubble; Earth observation satellites from companies like Planet Labs, Umbra, and HawkEye 360; GPS; miniature CubeSats for education and research; and military/defense satellites.

Loading next visibility...
Identifier
45377, 2020-019T
Orbit
LEO
Country
Flag of USUS
Related business
Manufacturer
SpaceX/Seattle
Mission
Partially operational Commercial Communications
Bus & Motor
STARLINK, Unknown motor
Mass
260 kg wet, ~248 kg dry
Launch date (UTC)
2020-03-18 (6 years ago)
Launch vehicle
FALCON 9
Launch site
Air Force Eastern Test Range (AFETR)
Object type
Payload
Rocket body
Debris
Shape & HBR
Box + 1 Pan, 10.1 m
Radar Cross Section
13.562 m², Large (>1 m²)

Expand to show TLE details & history
Last TLE update: 3 days ago

TLE from 3 days ago
0 STARLINK-1305
1 45377U 20019T   26170.80062459  .00063757  00000-0  45931-3 0  9991
2 45377  53.0392 352.2332 0002680 280.4177  79.6539 15.72984831346195
Epoch: 2026-06-19T19:12Z
TLE epoch observation values (Epoch: 2026-06-19T19:12:53.964Z)
Latitude
0.00001°
Longitude
155.98396°
Altitude
350.951 km
Speed
7.7 km/s
True Right ascension
23h 28m 55s
True Declination
0° 00' 00"
Sunlit
Object was in daylight at epoch
Visualization orbit readout
Latitude
Unknown
Longitude
Unknown
Altitude
Unknown
Speed
Unknown
Apparent Right ascension
Unknown
Apparent Declination
Unknown
Sunlit
N/A
Visualization observer readout
Local Sidereal Time
02:13:25
Azimuth
Unknown
Elevation
Unknown
Doppler factor
Unknown
Orbital elements
Apogee altitude
352.456 km
Perigee altitude
348.849 km
Semi-major axis
6,728.79 km
Eccentricity
0.00027
Inclination
53.0392°
RAAN
352.2332°
Arg. of periapsis
280.4177°
True anomaly
79.68411°
Mean anomaly
79.6539°
Eccentric anomaly
79.66901°
Mean motion
3.93222 °/min
Orbital period
91.55 mins
BSTAR
0.00045931
Loading maneuver chart data...
Computing Atmospheric mass density...

Documentation

Showing up to 5 results
|